This demonstration page uses our WeatherBlox Daily Observations layout. Learn more.

Left ArrowRight Arrow

Hourly Observations for June 26, 2018

Temp ( °F °C ) Dew Point ( °F °C ) Humidity (%) Winds ( mph kmh ) Pressure ( in mb ) Visibility ( mi km ) Precip ( " mm )
12:53 am 00:53 Clear 63 17.2 60 15.6 90 90 Calm 29.72 1007 10 16 0.00 0.03
1:53 am 01:53 Mostly Clear 61 16.1 59 15 93 93 Calm 29.73 1007 10 16 0.00 0.00
2:53 am 02:53 Clear 57 13.9 57 13.9 100 100 W 7 11 29.74 1007 10 16 0.00 0.00
3:53 am 03:53 Mostly Cloudy 58 14.4 57 13.9 97 97 W 8 13 29.76 1008 10 16 0.00 0.00
4:53 am 04:53 Mostly Clear 58 14.4 56 13.3 93 93 W 7 11 29.77 1008 10 16 0.00 0.00
5:53 am 05:53 Mostly Cloudy 57 13.9 52 11.1 83 83 W 7 11 29.78 1009 10 16 0.00 0.00
6:53 am 06:53 Partly Cloudy 58 14.4 50 10 75 75 WSW 12 19 29.82 1010 10 16 0.00 0.00
7:53 am 07:53 Sunny 63 17.2 48 8.9 58 58 W 10 17 29.83 1010 10 16 0.00 0.00
8:53 am 08:53 Sunny 65 18.3 42 5.6 43 43 WSW 13 20 29.84 1011 10 16 0.00 0.00
9:53 am 09:53 Sunny 68 20 40 4.4 36 36 WSW 17 28 29.84 1011 10 16 0.00 0.00
10:53 am 10:53 Sunny 70 21.1 39 3.9 32 32 SW 17 28 29.83 1010 10 16 0.00 0.00
11:53 am 11:53 Sunny 73 22.8 39 3.9 29 29 W 17 28 29.83 1010 10 16 0.00 0.00
12:53 pm 12:53 Mostly Sunny 74 23.3 36 2.2 25 25 WSW 20 31 29.81 1010 10 16 0.00 0.00
1:53 pm 13:53 Sunny 75 23.9 37 2.8 25 25 WSW 23 37 29.80 1009 10 16 0.00 0.00
2:53 pm 14:53 Partly Cloudy 78 25.6 35 1.7 21 21 WSW 18 30 29.80 1009 10 16 0.00 0.00
3:53 pm 15:53 Partly Cloudy 78 25.6 32 0 19 19 W 20 31 29.80 1009 10 16 0.00 0.00
4:53 pm 16:53 Mostly Cloudy 74 23.3 31 -0.6 20 20 W 24 39 29.81 1010 10 16 0.00 0.00
5:53 pm 17:53 Sunny 76 24.4 26 -3.3 16 16 W 24 39 29.82 1010 10 16 0.00 0.00
6:53 pm 18:53 Sunny 74 23.3 28 -2.2 18 18 W 23 37 29.83 1010 10 16 0.00 0.00
7:53 pm 19:53 Sunny 72 22.2 31 -0.6 22 22 W 17 28 29.83 1010 10 16 0.00 0.00
8:53 pm 20:53 Sunny 67 19.4 32 0 27 27 W 10 17 29.85 1011 10 16 0.00 0.00
9:53 pm 21:53 Clear 61 16.1 36 2.2 39 39 W 10 17 29.86 1011 10 16 0.00 0.00
10:53 pm 22:53 Clear 55 12.8 39 3.9 55 55 WNW 5 7 29.88 1012 10 16 0.00 0.00
11:53 pm 23:53 Clear 54 12.2 40 4.4 59 59 WSW 7 11 29.90 1013 10 16 0.00 0.00

Powered by AerisWeather